Hourly Data Report for June 13, 2013

VANCOUVER INTL A
BRITISH COLUMBIA

49°11'41.000" N
123°11'02.000" W
4.30 m
1108395
71892
YVR

Download Data

Hourly Data (June 2013)
Hourly Data Report for June 13, 2013
TIME
LST
Temp Definition
°C
Dew Point Definition
°C
Rel Hum Definition
%
Precip. Amount Definition
mm

Wind Dir Definition
10's deg

Wind Spd Definition
km/h
Visibility Definition
km
Stn Press Definition
kPa
Hmdx Definition


Wind Chill Definition


Weather Definition


00:00 11.2 8.4 83   9 7 48.3 102.03     LegendNANA
01:00
02:00 10.3 7.6 83   9 6 48.3 102.03     LegendNANA
03:00 9.1 7.2 88   10 9 48.3 102.04     LegendNANA
04:00 8.9 7.2 89   9 8 48.3 102.05     Mainly Clear
05:00
06:00 11.9 9.1 83   9 8 48.3 102.08     LegendNANA
07:00 13.5 9.6 77   14 7 48.3 102.10     Mainly Clear
08:00 14.7 9.8 72   30 9 48.3 102.13     LegendNANA
09:00 15.4 10.4 72   28 10 48.3 102.12     LegendNANA
10:00 15.5 11.1 75   24 12 48.3 102.14     Mainly Clear
11:00 15.9 11.3 74   26 15 48.3 102.15     LegendNANA
12:00 16.3 12.1 76   24 12 48.3 102.13     LegendNANA
13:00 16.6 12.2 75   26 11 48.3 102.12     Mainly Clear
14:00 17.6 11.5 67   24 13 48.3 102.10     LegendNANA
15:00 18.9 9.2 53   21 17 48.3 102.08     LegendNANA
16:00 19.1 11.5 61   23 17 48.3 102.06     Mainly Clear
17:00 18.9 8.4 50   22 14 48.3 102.06     LegendNANA
18:00 18.3 9.5 56   19 17 48.3 102.04     LegendNANA
19:00 17.0 9.5 61   20 10 32.2 102.06     Mostly Cloudy
20:00 15.9 11.1 73   22 11 32.2 102.06     LegendNANA
21:00 15.7 10.9 73   17 5 32.2 102.08     LegendNANA
22:00 15.6 11.6 77   18 7 32.2 102.10     Cloudy
23:00 15.3 12.3 82   1 5 32.2 102.09     LegendNANA

Notes on Data Quality.

Legend

  • E = Estimated
  • M = Missing
  • NA = Not Available*
  • [empty] = Indicates an unobserved value
Date modified: